Location: Newark
(45.5167°N, 11.1667°E)
Time: 16:44:02
(UTC+00:00)

ISS - Visible Passes

Search period start: 12 November 2019 00:00
Search period end: 22 November 2019 00:00
Orbit: 412 x 421 km, 51.6° (Epoch: 13 November)

Date Brightness Start Highest point End Pass type
(mag) Time Alt. Az. Time Alt. Az. Time Alt. Az.
12 Nov -2.3 04:01:34 32° SSE 04:01:34 32° SSE 04:03:39 10° SE visible
13 Nov -1.5 04:48:32 13° SW 04:48:32 13° SW 04:49:58 10° SSW visible
14 Nov -0.9 04:02:38 11° S 04:02:38 11° S 04:02:45 10° S visible
20 Nov -1.2 17:28:43 10° SSE 17:29:00 11° SSE 17:29:00 11° SSE visible
21 Nov -1.0 18:15:08 10° SW 18:15:50 15° SW 18:15:50 15° SW visible
